IRIDIUM 116

Last updated on Fri Sep 11 2026 00:03:06 GMT+0000 (Coordinated Universal Time)

1 43072U 17083C 26253.54188816 .00000112 00000+0 32788-4 0 9999 2 43072 86.3925 286.3193 0002033 87.2611 272.8818 14.34217925456409
UTC large
Height (km)
Speed (km/s)
/
Latitude / Longitude
Inclination (degrees)
Orbital Period (minutes)
Azimuth
Elevation
Range (km)
Doppler Factor

Next 0 passes for location: London (51.5072 / 0.1276)

No passes found over London.
IRIDIUM 116